Time,TemperatureF,DewpointF,PressureIn,WindDirection,WindDirectionDegrees,WindSpeedMPH,WindSpeedGustMPH,Humidity,HourlyPrecipIn,Conditions,Clouds,dailyrainin,SoftwareType,DateUTC
2013-01-28 00:00:00,15.7,8.0,30.45,WNW,283,0.0,0.0,71,0.00,,,0.00,WeatherDisplay:10.37,2013-01-28 05:00:00,
2013-01-28 00:06:00,15.9,8.2,30.44,WNW,284,0.0,0.0,71,0.00,,,0.00,WeatherDisplay:10.37,2013-01-28 05:06:00,
2013-01-28 00:11:00,15.8,8.1,30.43,WNW,284,0.0,0.0,71,0.00,,,0.00,WeatherDisplay:10.37,2013-01-28 05:11:00,
2013-01-28 00:16:00,15.7,7.6,30.44,WNW,284,0.0,0.0,70,0.00,,,0.00,WeatherDisplay:10.37,2013-01-28 05:16:00,
2013-01-28 00:21:00,15.4,7.7,30.44,WNW,283,0.0,0.0,71,0.00,,,0.00,WeatherDisplay:10.37,2013-01-28 05:21:00,
2013-01-28 00:26:00,15.3,7.9,30.44,WNW,283,0.0,0.0,72,0.00,,,0.00,WeatherDisplay:10.37,2013-01-28 05:26:00,
2013-01-28 00:31:00,15.2,7.8,30.44,WNW,284,0.0,0.0,72,0.00,,,0.00,WeatherDisplay:10.37,2013-01-28 05:31:00,
2013-01-28 00:36:00,15.1,7.7,30.43,WNW,284,0.0,0.0,72,0.00,,,0.00,WeatherDisplay:10.37,2013-01-28 05:36:00,
2013-01-28 00:41:00,14.9,7.8,30.43,WNW,283,0.0,0.0,73,0.00,,,0.00,WeatherDisplay:10.37,2013-01-28 05:41:00,
2013-01-28 00:46:00,14.6,7.5,30.43,WNW,284,0.0,0.0,73,0.00,,,0.00,WeatherDisplay:10.37,2013-01-28 05:46:00,
2013-01-28 00:51:00,14.3,7.2,30.43,WNW,284,0.0,0.0,73,0.00,,,0.00,WeatherDisplay:10.37,2013-01-28 05:51:00,
2013-01-28 00:56:00,14.1,7.6,30.42,WNW,284,0.0,0.0,75,0.00,,,0.00,WeatherDisplay:10.37,2013-01-28 05:56:00,
2013-01-28 01:01:00,13.9,7.4,30.42,WNW,283,0.0,0.0,75,0.00,,,0.00,WeatherDisplay:10.37,2013-01-28 06:01:00,
2013-01-28 01:06:00,13.7,7.5,30.42,WNW,284,0.0,0.0,76,0.00,,,0.00,WeatherDisplay:10.37,2013-01-28 06:06:00,
2013-01-28 01:11:00,13.4,7.2,30.42,WNW,284,0.0,0.0,76,0.00,,,0.00,WeatherDisplay:10.37,2013-01-28 06:11:00,
2013-01-28 01:16:00,13.2,7.3,30.42,WNW,284,0.0,0.0,77,0.00,,,0.00,WeatherDisplay:10.37,2013-01-28 06:16:00,
2013-01-28 01:21:00,13.4,7.5,30.43,WNW,283,0.0,0.0,77,0.00,,,0.00,WeatherDisplay:10.37,2013-01-28 06:21:00,
2013-01-28 01:26:00,13.7,7.2,30.43,WNW,284,0.0,0.0,75,0.00,,,0.00,WeatherDisplay:10.37,2013-01-28 06:26:00,
2013-01-28 01:31:00,14.0,7.5,30.43,WNW,283,0.0,0.0,75,0.00,,,0.00,WeatherDisplay:10.37,2013-01-28 06:31:00,
2013-01-28 01:36:00,14.3,7.5,30.44,WNW,283,0.0,0.0,74,0.00,,,0.00,WeatherDisplay:10.37,2013-01-28 06:36:00,
2013-01-28 01:41:00,14.4,7.3,30.43,WNW,283,0.0,0.0,73,0.00,,,0.00,WeatherDisplay:10.37,2013-01-28 06:41:00,
2013-01-28 01:46:00,14.5,7.4,30.43,WNW,284,0.0,0.0,73,0.00,,,0.00,WeatherDisplay:10.37,2013-01-28 06:46:00,
2013-01-28 01:51:00,14.3,7.5,30.43,WNW,284,0.0,0.0,74,0.00,,,0.00,WeatherDisplay:10.37,2013-01-28 06:51:00,
2013-01-28 01:56:00,14.1,7.6,30.44,WNW,283,0.0,0.0,75,0.00,,,0.00,WeatherDisplay:10.37,2013-01-28 06:56:00,
2013-01-28 02:06:00,13.7,7.5,30.43,WNW,283,0.0,0.0,76,0.00,,,0.00,WeatherDisplay:10.37,2013-01-28 07:06:00,
2013-01-28 02:11:00,13.3,7.1,30.43,WNW,283,0.0,0.0,76,0.00,,,0.00,WeatherDisplay:10.37,2013-01-28 07:11:00,
2013-01-28 02:16:00,13.0,7.1,30.43,WNW,284,0.0,0.0,77,0.00,,,0.00,WeatherDisplay:10.37,2013-01-28 07:16:00,
2013-01-28 02:21:00,12.6,7.0,30.43,WNW,283,0.0,0.0,78,0.00,,,0.00,WeatherDisplay:10.37,2013-01-28 07:21:00,
2013-01-28 02:26:00,12.4,6.8,30.43,WNW,283,0.0,0.0,78,0.00,,,0.00,WeatherDisplay:10.37,2013-01-28 07:26:00,
2013-01-28 02:31:00,12.3,7.3,30.43,WNW,283,0.0,0.0,80,0.00,,,0.00,WeatherDisplay:10.37,2013-01-28 07:31:00,
2013-01-28 02:36:00,12.2,7.2,30.43,WNW,284,0.0,0.0,80,0.00,,,0.00,WeatherDisplay:10.37,2013-01-28 07:36:00,
2013-01-28 02:41:00,11.9,7.2,30.43,WNW,284,0.0,0.0,81,0.00,,,0.00,WeatherDisplay:10.37,2013-01-28 07:41:00,
2013-01-28 02:46:00,11.6,6.9,30.43,WNW,284,0.0,0.0,81,0.00,,,0.00,WeatherDisplay:10.37,2013-01-28 07:46:00,
2013-01-28 02:51:00,11.5,6.8,30.43,WNW,284,0.0,0.0,81,0.00,,,0.00,WeatherDisplay:10.37,2013-01-28 07:51:00,
2013-01-28 02:56:00,11.5,7.1,30.42,WNW,283,0.0,0.0,82,0.00,,,0.00,WeatherDisplay:10.37,2013-01-28 07:56:00,
2013-01-28 03:01:00,11.6,7.2,30.42,WNW,283,0.0,0.0,82,0.00,,,0.00,WeatherDisplay:10.37,2013-01-28 08:01:00,
2013-01-28 03:06:00,11.8,7.4,30.42,WNW,284,0.0,0.0,82,0.00,,,0.00,WeatherDisplay:10.37,2013-01-28 08:06:00,
2013-01-28 03:11:00,11.9,7.5,30.42,WNW,284,0.0,0.0,82,0.00,,,0.00,WeatherDisplay:10.37,2013-01-28 08:11:00,
2013-01-28 03:16:00,12.1,7.7,30.42,WNW,284,0.0,0.0,82,0.00,,,0.00,WeatherDisplay:10.37,2013-01-28 08:16:00,
2013-01-28 03:21:00,12.1,7.7,30.42,WNW,284,0.0,0.0,82,0.00,,,0.00,WeatherDisplay:10.37,2013-01-28 08:21:00,
2013-01-28 03:26:00,12.1,7.7,30.42,WNW,284,0.0,0.0,82,0.00,,,0.00,WeatherDisplay:10.37,2013-01-28 08:26:00,
2013-01-28 03:31:00,12.1,7.7,30.42,WNW,283,0.0,0.0,82,0.00,,,0.00,WeatherDisplay:10.37,2013-01-28 08:31:00,
2013-01-28 03:36:00,12.3,7.9,30.42,WNW,284,0.0,0.0,82,0.00,,,0.00,WeatherDisplay:10.37,2013-01-28 08:36:00,
2013-01-28 03:41:00,12.6,8.1,30.42,WNW,284,0.0,0.0,82,0.00,,,0.00,WeatherDisplay:10.37,2013-01-28 08:41:00,
2013-01-28 03:46:00,12.5,8.0,30.42,WNW,284,0.0,0.0,82,0.00,,,0.00,WeatherDisplay:10.37,2013-01-28 08:46:00,
2013-01-28 03:51:00,12.3,7.9,30.42,WNW,284,0.0,0.0,82,0.00,,,0.00,WeatherDisplay:10.37,2013-01-28 08:51:00,
2013-01-28 03:56:00,12.1,7.7,30.42,WNW,284,0.0,0.0,82,0.00,,,0.00,WeatherDisplay:10.37,2013-01-28 08:56:00,
2013-01-28 04:01:00,12.1,7.9,30.42,WNW,284,0.0,0.0,83,0.00,,,0.00,WeatherDisplay:10.37,2013-01-28 09:01:00,
2013-01-28 04:06:00,12.0,7.8,30.42,WNW,283,0.0,0.0,83,0.00,,,0.00,WeatherDisplay:10.37,2013-01-28 09:06:00,
2013-01-28 04:11:00,11.9,7.7,30.41,WNW,284,0.0,0.0,83,0.00,,,0.00,WeatherDisplay:10.37,2013-01-28 09:11:00,
2013-01-28 04:16:00,11.7,7.5,30.41,WNW,284,0.0,0.0,83,0.00,,,0.00,WeatherDisplay:10.37,2013-01-28 09:16:00,
2013-01-28 04:21:00,11.6,7.7,30.41,WNW,284,0.0,0.0,84,0.00,,,0.00,WeatherDisplay:10.37,2013-01-28 09:21:00,
2013-01-28 04:26:00,11.6,7.7,30.41,WNW,283,0.0,0.0,84,0.00,,,0.00,WeatherDisplay:10.37,2013-01-28 09:26:00,
2013-01-28 04:31:00,11.5,7.6,30.41,WNW,283,0.0,0.0,84,0.00,,,0.00,WeatherDisplay:10.37,2013-01-28 09:31:00,
2013-01-28 04:36:00,11.5,7.6,30.41,WNW,283,0.0,0.0,84,0.00,,,0.00,WeatherDisplay:10.37,2013-01-28 09:36:00,
2013-01-28 04:41:00,11.4,7.8,30.41,WNW,283,0.0,0.0,85,0.00,,,0.00,WeatherDisplay:10.37,2013-01-28 09:41:00,
2013-01-28 04:46:00,11.4,7.8,30.40,WNW,283,0.0,0.0,85,0.00,,,0.00,WeatherDisplay:10.37,2013-01-28 09:46:00,
2013-01-28 04:51:00,11.5,7.9,30.41,WNW,284,0.0,0.0,85,0.00,,,0.00,WeatherDisplay:10.37,2013-01-28 09:51:00,
2013-01-28 04:56:00,11.8,8.2,30.41,WNW,284,0.0,0.0,85,0.00,,,0.00,WeatherDisplay:10.37,2013-01-28 09:56:00,
2013-01-28 05:01:00,12.2,8.6,30.41,WNW,284,0.0,0.0,85,0.00,,,0.00,WeatherDisplay:10.37,2013-01-28 10:01:00,
2013-01-28 05:06:00,12.7,9.0,30.41,WNW,283,0.0,0.0,85,0.00,,,0.00,WeatherDisplay:10.37,2013-01-28 10:06:00,
2013-01-28 05:11:00,12.9,9.2,30.41,WNW,284,0.0,0.0,85,0.00,,,0.00,WeatherDisplay:10.37,2013-01-28 10:11:00,
2013-01-28 05:16:00,13.1,9.4,30.41,WNW,284,0.0,0.0,85,0.00,,,0.00,WeatherDisplay:10.37,2013-01-28 10:16:00,
2013-01-28 05:27:00,13.2,9.5,30.41,WNW,283,0.0,0.0,85,0.00,,,0.00,WeatherDisplay:10.37,2013-01-28 10:27:00,
2013-01-28 05:32:00,13.2,9.5,30.41,WNW,284,0.0,0.0,85,0.00,,,0.00,WeatherDisplay:10.37,2013-01-28 10:32:00,
2013-01-28 05:37:00,13.1,9.4,30.41,WNW,284,0.0,0.0,85,0.00,,,0.00,WeatherDisplay:10.37,2013-01-28 10:37:00,
2013-01-28 05:42:00,13.0,9.3,30.41,WNW,283,0.0,0.0,85,0.00,,,0.00,WeatherDisplay:10.37,2013-01-28 10:42:00,
2013-01-28 05:47:00,12.8,8.9,30.41,WNW,283,0.0,0.0,84,0.00,,,0.00,WeatherDisplay:10.37,2013-01-28 10:47:00,
2013-01-28 05:52:00,12.6,8.7,30.40,WNW,284,0.0,0.0,84,0.00,,,0.00,WeatherDisplay:10.37,2013-01-28 10:52:00,
2013-01-28 05:57:00,12.5,8.6,30.41,WNW,284,0.0,0.0,84,0.00,,,0.00,WeatherDisplay:10.37,2013-01-28 10:57:00,
2013-01-28 06:02:00,12.4,8.5,30.40,WNW,283,0.0,0.0,84,0.00,,,0.00,WeatherDisplay:10.37,2013-01-28 11:02:00,
2013-01-28 06:07:00,12.3,8.4,30.40,WNW,284,0.0,0.0,84,0.00,,,0.00,WeatherDisplay:10.37,2013-01-28 11:07:00,
2013-01-28 06:12:00,12.3,8.4,30.40,WNW,284,0.0,0.0,84,0.00,,,0.00,WeatherDisplay:10.37,2013-01-28 11:12:00,
2013-01-28 06:17:00,12.4,8.7,30.40,WNW,283,0.0,0.0,85,0.00,,,0.00,WeatherDisplay:10.37,2013-01-28 11:17:00,
2013-01-28 06:22:00,12.5,8.8,30.40,WNW,284,0.0,0.0,85,0.00,,,0.00,WeatherDisplay:10.37,2013-01-28 11:22:00,
2013-01-28 06:27:00,12.5,8.8,30.40,WNW,284,0.0,0.0,85,0.00,,,0.00,WeatherDisplay:10.37,2013-01-28 11:27:00,
2013-01-28 06:32:00,12.4,8.7,30.40,WNW,284,0.0,0.0,85,0.00,,,0.00,WeatherDisplay:10.37,2013-01-28 11:32:00,
2013-01-28 06:37:00,12.5,8.8,30.40,WNW,284,0.0,0.0,85,0.00,,,0.00,WeatherDisplay:10.37,2013-01-28 11:37:00,
2013-01-28 06:42:00,12.6,8.9,30.40,WNW,284,0.0,0.0,85,0.00,,,0.00,WeatherDisplay:10.37,2013-01-28 11:42:00,
2013-01-28 06:47:00,13.0,9.6,30.39,WNW,283,0.0,0.0,86,0.00,,,0.00,WeatherDisplay:10.37,2013-01-28 11:47:00,
2013-01-28 06:52:00,13.2,9.8,30.40,WNW,284,0.0,0.0,86,0.00,,,0.00,WeatherDisplay:10.37,2013-01-28 11:52:00,
2013-01-28 06:57:00,13.2,9.5,30.40,WNW,284,0.0,0.0,85,0.00,,,0.00,WeatherDisplay:10.37,2013-01-28 11:57:00,
2013-01-28 07:02:00,13.5,9.8,30.40,WNW,283,0.0,0.0,85,0.00,CLR,,0.00,WeatherDisplay:10.37,2013-01-28 12:02:00,
2013-01-28 07:07:00,13.8,10.1,30.40,WNW,284,0.0,0.0,85,0.00,CLR,,0.00,WeatherDisplay:10.37,2013-01-28 12:07:00,
2013-01-28 07:12:00,14.0,10.3,30.40,WNW,284,0.0,0.0,85,0.00,CLR,,0.00,WeatherDisplay:10.37,2013-01-28 12:12:00,
2013-01-28 07:17:00,14.3,10.6,30.41,WNW,283,0.0,0.0,85,0.00,CLR,,0.00,WeatherDisplay:10.37,2013-01-28 12:17:00,
2013-01-28 07:22:00,14.5,10.8,30.41,WNW,284,0.0,0.0,85,0.00,CLR,,0.00,WeatherDisplay:10.37,2013-01-28 12:22:00,
2013-01-28 07:27:00,14.8,11.1,30.41,WNW,284,0.0,0.0,85,0.00,CLR,,0.00,WeatherDisplay:10.37,2013-01-28 12:27:00,
2013-01-28 07:32:00,14.9,11.5,30.40,WNW,283,0.0,0.0,86,0.00,CLR,,0.00,WeatherDisplay:10.37,2013-01-28 12:32:00,
2013-01-28 07:37:00,15.2,11.8,30.40,WNW,283,0.0,0.0,86,0.00,CLR,,0.00,WeatherDisplay:10.37,2013-01-28 12:37:00,
2013-01-28 07:42:00,15.5,12.1,30.40,WNW,284,0.0,0.0,86,0.00,CLR,,0.00,WeatherDisplay:10.37,2013-01-28 12:42:00,
2013-01-28 07:47:00,15.9,12.5,30.39,WNW,284,0.0,0.0,86,0.00,CLR,,0.00,WeatherDisplay:10.37,2013-01-28 12:47:00,
2013-01-28 07:52:00,16.2,12.7,30.39,WNW,283,0.0,0.0,86,0.00,CLR,,0.00,WeatherDisplay:10.37,2013-01-28 12:52:00,
2013-01-28 07:57:00,16.5,12.8,30.40,WNW,284,0.0,0.0,85,0.00,CLR,,0.00,WeatherDisplay:10.37,2013-01-28 12:57:00,
2013-01-28 08:02:00,16.8,13.1,30.40,WNW,284,0.0,0.0,85,0.00,CLR,,0.00,WeatherDisplay:10.37,2013-01-28 13:02:00,
2013-01-28 08:07:00,17.2,13.5,30.40,WNW,284,0.0,0.0,85,0.00,CLR,,0.00,WeatherDisplay:10.37,2013-01-28 13:07:00,
2013-01-28 08:12:00,17.6,13.9,30.40,WNW,283,0.0,0.0,85,0.00,CLR,,0.00,WeatherDisplay:10.37,2013-01-28 13:12:00,
2013-01-28 08:17:00,18.1,14.1,30.40,WNW,283,0.0,0.0,84,0.00,CLR,,0.00,WeatherDisplay:10.37,2013-01-28 13:17:00,
2013-01-28 08:22:00,18.6,14.6,30.40,WNW,284,0.0,0.0,84,0.00,CLR,,0.00,WeatherDisplay:10.37,2013-01-28 13:22:00,
2013-01-28 08:27:00,19.2,14.9,30.40,WNW,283,0.0,0.0,83,0.00,CLR,,0.00,WeatherDisplay:10.37,2013-01-28 13:27:00,
2013-01-28 08:32:00,19.7,15.1,30.40,WNW,283,0.0,0.0,82,0.00,CLR,,0.00,WeatherDisplay:10.37,2013-01-28 13:32:00,
2013-01-28 08:37:00,20.3,15.4,30.40,WNW,284,0.0,0.0,81,0.00,CLR,,0.00,WeatherDisplay:10.37,2013-01-28 13:37:00,
2013-01-28 08:42:00,20.9,15.7,30.40,WNW,284,2.0,2.0,80,0.00,CLR,,0.00,WeatherDisplay:10.37,2013-01-28 13:42:00,
2013-01-28 08:47:00,21.6,14.9,30.40,WNW,284,0.0,0.0,75,0.00,CLR,,0.00,WeatherDisplay:10.37,2013-01-28 13:47:00,
2013-01-28 08:52:00,22.4,15.1,30.40,WNW,283,0.0,0.0,73,0.00,CLR,,0.00,WeatherDisplay:10.37,2013-01-28 13:52:00,
2013-01-28 08:57:00,23.0,14.3,30.39,WNW,284,0.0,0.0,69,0.00,CLR,,0.00,WeatherDisplay:10.37,2013-01-28 13:57:00,
2013-01-28 09:02:00,23.8,13.0,30.39,WNW,283,1.1,1.1,63,0.00,CLR,,0.00,WeatherDisplay:10.37,2013-01-28 14:02:00,
2013-01-28 09:07:00,24.4,12.1,30.39,WNW,283,2.3,2.3,59,0.00,CLR,,0.00,WeatherDisplay:10.37,2013-01-28 14:07:00,
2013-01-28 09:12:00,24.8,11.7,30.39,WNW,284,0.0,0.0,57,0.00,CLR,,0.00,WeatherDisplay:10.37,2013-01-28 14:12:00,
2013-01-28 09:17:00,25.2,12.5,30.39,WNW,284,0.0,0.0,58,0.00,CLR,,0.00,WeatherDisplay:10.37,2013-01-28 14:17:00,
2013-01-28 09:22:00,25.6,11.7,30.39,WNW,284,1.1,0.0,55,0.00,CLR,,0.00,WeatherDisplay:10.37,2013-01-28 14:22:00,
2013-01-28 09:27:00,26.0,11.2,30.39,WNW,283,2.0,2.0,53,0.00,CLR,,0.00,WeatherDisplay:10.37,2013-01-28 14:27:00,
2013-01-28 09:32:00,26.3,10.2,30.39,WNW,284,2.3,0.0,50,0.00,CLR,,0.00,WeatherDisplay:10.37,2013-01-28 14:32:00,
2013-01-28 09:37:00,26.9,10.7,30.39,WNW,284,2.3,2.3,50,0.00,CLR,,0.00,WeatherDisplay:10.37,2013-01-28 14:37:00,
2013-01-28 09:42:00,27.2,10.1,30.39,WNW,283,2.3,0.0,48,0.00,CLR,,0.00,WeatherDisplay:10.37,2013-01-28 14:42:00,
2013-01-28 09:47:00,27.6,10.4,30.39,WNW,284,2.3,2.3,48,0.00,CLR,,0.00,WeatherDisplay:10.37,2013-01-28 14:47:00,
2013-01-28 09:52:00,28.0,10.8,30.39,WNW,284,2.0,2.0,48,0.00,CLR,,0.00,WeatherDisplay:10.37,2013-01-28 14:52:00,
2013-01-28 09:57:00,28.1,10.9,30.38,WNW,284,1.1,0.0,48,0.00,CLR,,0.00,WeatherDisplay:10.37,2013-01-28 14:57:00,
2013-01-28 10:02:00,28.4,11.2,30.38,WNW,283,0.0,0.0,48,0.00,CLR,,0.00,WeatherDisplay:10.37,2013-01-28 15:02:00,
2013-01-28 10:07:00,28.5,10.8,30.38,WNW,284,1.0,0.0,47,0.00,CLR,,0.00,WeatherDisplay:10.37,2013-01-28 15:07:00,
2013-01-28 10:12:00,28.6,10.4,30.37,WNW,284,1.1,0.0,46,0.00,CLR,,0.00,WeatherDisplay:10.37,2013-01-28 15:12:00,
2013-01-28 10:17:00,28.8,12.0,30.37,WNW,283,0.0,0.0,49,0.00,CLR,,0.00,WeatherDisplay:10.37,2013-01-28 15:17:00,
2013-01-28 10:22:00,29.2,11.4,30.37,WNW,283,2.3,2.3,47,0.00,CLR,,0.00,WeatherDisplay:10.37,2013-01-28 15:22:00,
2013-01-28 10:27:00,29.2,11.0,30.37,WNW,283,2.3,0.0,46,0.00,CLR,,0.00,WeatherDisplay:10.37,2013-01-28 15:27:00,
2013-01-28 10:32:00,29.0,10.3,30.38,South,171,3.5,3.5,45,0.00,CLR,,0.00,WeatherDisplay:10.37,2013-01-28 15:32:00,
2013-01-28 10:37:00,29.0,10.3,30.38,SSW,200,3.0,3.0,45,0.00,CLR,,0.00,WeatherDisplay:10.37,2013-01-28 15:37:00,
2013-01-28 10:42:00,29.2,11.0,30.37,SSE,164,3.5,3.5,46,0.00,CLR,,0.00,WeatherDisplay:10.37,2013-01-28 15:42:00,
2013-01-28 10:47:00,29.2,10.5,30.37,SW,229,2.3,2.3,45,0.00,CLR,,0.00,WeatherDisplay:10.37,2013-01-28 15:47:00,
2013-01-28 10:52:00,29.3,10.6,30.36,SSW,205,0.0,0.0,45,0.00,CLR,,0.00,WeatherDisplay:10.37,2013-01-28 15:52:00,
2013-01-28 10:57:00,29.5,10.7,30.36,SSW,205,0.0,0.0,45,0.00,CLR,,0.00,WeatherDisplay:10.37,2013-01-28 15:57:00,
2013-01-28 11:02:00,29.7,11.4,30.35,SSW,205,0.0,0.0,46,0.00,CLR,,0.00,WeatherDisplay:10.37,2013-01-28 16:02:00,
2013-01-28 11:07:00,30.0,12.2,30.35,SSW,205,0.0,0.0,47,0.00,CLR,,0.00,WeatherDisplay:10.37,2013-01-28 16:07:00,
2013-01-28 11:12:00,30.3,12.0,30.34,SSW,198,3.5,3.5,46,0.00,CLR,,0.00,WeatherDisplay:10.37,2013-01-28 16:12:00,
2013-01-28 11:17:00,30.5,11.7,30.34,SW,226,0.0,0.0,45,0.00,CLR,,0.00,WeatherDisplay:10.37,2013-01-28 16:17:00,
2013-01-28 11:22:00,30.7,11.8,30.34,SW,226,2.3,2.3,45,0.00,CLR,,0.00,WeatherDisplay:10.37,2013-01-28 16:22:00,
2013-01-28 11:27:00,30.9,11.5,30.33,South,180,6.9,6.9,44,0.00,CLR,,0.00,WeatherDisplay:10.37,2013-01-28 16:27:00,
2013-01-28 11:32:00,30.8,11.4,30.33,WNW,290,2.3,2.3,44,0.00,CLR,,0.00,WeatherDisplay:10.37,2013-01-28 16:32:00,
2013-01-28 11:37:00,30.7,11.8,30.33,WNW,298,3.5,3.5,45,0.00,CLR,,0.00,WeatherDisplay:10.37,2013-01-28 16:37:00,
2013-01-28 11:42:00,30.7,11.8,30.33,SW,215,2.0,0.0,45,0.00,CLR,,0.00,WeatherDisplay:10.37,2013-01-28 16:42:00,
2013-01-28 11:47:00,30.7,12.3,30.32,SSW,212,3.5,3.5,46,0.00,CLR,,0.00,WeatherDisplay:10.37,2013-01-28 16:47:00,
2013-01-28 11:52:00,30.6,12.2,30.32,SSE,163,2.3,2.3,46,0.00,CLR,,0.00,WeatherDisplay:10.37,2013-01-28 16:52:00,
2013-01-28 11:57:00,30.6,12.7,30.31,SW,225,4.0,4.0,47,0.00,CLR,,0.00,WeatherDisplay:10.37,2013-01-28 16:57:00,
2013-01-28 12:02:00,30.7,12.3,30.31,SE,136,2.3,2.3,46,0.00,CLR,,0.00,WeatherDisplay:10.37,2013-01-28 17:02:00,
2013-01-28 12:07:00,30.9,13.5,30.30,SSE,168,3.5,3.5,48,0.00,CLR,,0.00,WeatherDisplay:10.37,2013-01-28 17:07:00,
2013-01-28 12:12:00,31.1,11.7,30.30,SW,223,5.8,5.8,44,0.00,CLR,,0.00,WeatherDisplay:10.37,2013-01-28 17:12:00,
2013-01-28 12:17:00,31.4,12.5,30.29,WSW,256,0.0,0.0,45,0.00,CLR,,0.00,WeatherDisplay:10.37,2013-01-28 17:17:00,
2013-01-28 12:22:00,31.7,12.2,30.28,SW,214,1.1,1.1,44,0.00,CLR,,0.00,WeatherDisplay:10.37,2013-01-28 17:22:00,
2013-01-28 12:27:00,32.1,13.1,30.28,SSW,212,2.3,2.3,45,0.00,CLR,,0.00,WeatherDisplay:10.37,2013-01-28 17:27:00,
2013-01-28 12:32:00,32.3,13.3,30.28,SW,216,4.6,4.6,45,0.00,CLR,,0.00,WeatherDisplay:10.37,2013-01-28 17:32:00,
2013-01-28 12:37:00,32.1,12.6,30.28,WSW,254,4.6,4.6,44,0.00,CLR,,0.00,WeatherDisplay:10.37,2013-01-28 17:37:00,
2013-01-28 12:42:00,32.0,13.0,30.28,SSW,205,6.9,6.9,45,0.00,CLR,,0.00,WeatherDisplay:10.37,2013-01-28 17:42:00,
2013-01-28 12:47:00,32.1,13.6,30.27,SSW,196,3.5,0.0,46,0.00,CLR,,0.00,WeatherDisplay:10.37,2013-01-28 17:47:00,
2013-01-28 12:52:00,32.2,13.2,30.27,WNW,291,3.5,3.5,45,0.00,CLR,,0.00,WeatherDisplay:10.37,2013-01-28 17:52:00,
2013-01-28 12:57:00,32.2,14.2,30.27,SW,226,3.5,3.5,47,0.00,CLR,,0.00,WeatherDisplay:10.37,2013-01-28 17:57:00,
2013-01-28 13:02:00,32.4,13.9,30.26,South,174,3.0,3.0,46,0.00,CLR,,0.00,WeatherDisplay:10.37,2013-01-28 18:02:00,
2013-01-28 13:07:00,32.1,13.6,30.26,SW,235,4.6,4.6,46,0.00,CLR,,0.00,WeatherDisplay:10.37,2013-01-28 18:07:00,
2013-01-28 13:12:00,32.1,13.6,30.25,SSW,205,1.1,0.0,46,0.00,CLR,,0.00,WeatherDisplay:10.37,2013-01-28 18:12:00,
2013-01-28 13:17:00,32.2,14.7,30.25,South,171,2.3,2.3,48,0.00,CLR,,0.00,WeatherDisplay:10.37,2013-01-28 18:17:00,
2013-01-28 13:22:00,32.1,14.1,30.25,SSE,156,3.5,3.5,47,0.00,CLR,,0.00,WeatherDisplay:10.37,2013-01-28 18:22:00,
2013-01-28 13:23:00,32.1,14.1,30.24,SSE,160,3.5,3.5,47,0.00,CLR,,0.00,WeatherDisplay:10.37,2013-01-28 18:23:00,
2013-01-28 13:28:00,31.9,14.9,30.24,WNW,284,6.9,6.9,49,0.00,CLR,,0.00,WeatherDisplay:10.37,2013-01-28 18:28:00,
2013-01-28 13:33:00,31.8,16.2,30.25,NW,307,5.8,5.8,52,0.00,CLR,,0.00,WeatherDisplay:10.37,2013-01-28 18:33:00,
2013-01-28 13:38:00,31.7,17.4,30.24,NW,319,4.0,4.0,55,0.00,CLR,,0.00,WeatherDisplay:10.37,2013-01-28 18:38:00,
2013-01-28 13:43:00,31.5,17.6,30.25,WNW,298,10.4,10.4,56,0.00,CLR,,0.00,WeatherDisplay:10.37,2013-01-28 18:43:00,
2013-01-28 13:48:00,31.2,19.7,30.24,SSE,150,3.5,3.5,62,0.00,CLR,,0.00,WeatherDisplay:10.37,2013-01-28 18:48:00,
2013-01-28 13:53:00,30.7,20.3,30.23,WSW,245,4.6,4.6,65,0.00,CLR,,0.00,WeatherDisplay:10.37,2013-01-28 18:53:00,
2013-01-28 13:54:00,30.6,20.6,30.23,NW,318,4.0,4.0,66,0.00,CLR,,0.00,WeatherDisplay:10.37,2013-01-28 18:54:00,
2013-01-28 13:59:00,30.1,21.2,30.23,WNW,284,1.0,1.0,69,0.00,CLR,,0.00,WeatherDisplay:10.37,2013-01-28 18:59:00,
2013-01-28 14:04:00,29.8,21.9,30.23,West,281,3.5,3.5,72,0.00,CLR,,0.00,WeatherDisplay:10.37,2013-01-28 19:04:00,
2013-01-28 14:09:00,29.4,22.5,30.22,SSW,209,3.5,3.5,75,0.00,CLR,,0.00,WeatherDisplay:10.37,2013-01-28 19:09:00,
2013-01-28 14:14:00,29.2,22.6,30.22,SSE,164,3.5,3.5,76,0.00,CLR,,0.00,WeatherDisplay:10.37,2013-01-28 19:14:00,
2013-01-28 14:19:00,28.9,22.9,30.21,South,182,1.1,1.8,78,0.00,CLR,,0.00,WeatherDisplay:10.37,2013-01-28 19:19:00,
2013-01-28 14:24:00,28.9,23.2,30.21,South,186,2.3,2.3,79,0.00,CLR,,0.00,WeatherDisplay:10.37,2013-01-28 19:24:00,
2013-01-28 14:29:00,28.7,23.3,30.21,NNW,340,2.0,2.0,80,0.00,CLR,,0.00,WeatherDisplay:10.37,2013-01-28 19:29:00,
2013-01-28 14:34:00,28.6,24.1,30.21,West,261,3.5,3.5,83,0.00,CLR,,0.00,WeatherDisplay:10.37,2013-01-28 19:34:00,
2013-01-28 14:39:00,28.4,24.5,30.21,West,261,0.0,0.0,85,0.00,CLR,,0.00,WeatherDisplay:10.37,2013-01-28 19:39:00,
2013-01-28 14:44:00,28.2,24.6,30.20,SW,222,1.0,1.0,86,0.00,CLR,,0.00,WeatherDisplay:10.37,2013-01-28 19:44:00,
2013-01-28 14:49:00,28.0,24.6,30.20,WSW,240,2.3,2.3,87,0.00,CLR,,0.00,WeatherDisplay:10.37,2013-01-28 19:49:00,
2013-01-28 14:54:00,28.0,24.9,30.20,South,169,1.1,1.1,88,0.00,CLR,,0.00,WeatherDisplay:10.37,2013-01-28 19:54:00,
2013-01-28 14:59:00,27.9,25.1,30.20,South,173,1.1,0.0,89,0.00,CLR,,0.00,WeatherDisplay:10.37,2013-01-28 19:59:00,
2013-01-28 15:04:00,27.9,25.1,30.19,SSE,148,0.0,0.0,89,0.00,CLR,,0.00,WeatherDisplay:10.37,2013-01-28 20:04:00,
2013-01-28 15:09:00,27.9,25.1,30.18,SSE,148,0.0,0.0,89,0.00,CLR,,0.00,WeatherDisplay:10.37,2013-01-28 20:09:00,
2013-01-28 15:14:00,27.9,25.3,30.17,SSE,148,2.0,2.0,90,0.00,CLR,,0.00,WeatherDisplay:10.37,2013-01-28 20:14:00,
2013-01-28 15:19:00,27.8,25.2,30.16,SSE,148,1.0,1.0,90,0.00,CLR,,0.00,WeatherDisplay:10.37,2013-01-28 20:19:00,
2013-01-28 15:24:00,27.8,25.5,30.16,SSE,148,0.0,0.0,91,0.00,CLR,,0.00,WeatherDisplay:10.37,2013-01-28 20:24:00,
2013-01-28 15:29:00,27.8,25.5,30.16,SSE,148,0.0,0.0,91,0.00,CLR,,0.00,WeatherDisplay:10.37,2013-01-28 20:29:00,
2013-01-28 15:34:00,27.8,25.8,30.15,SSE,148,0.0,0.0,92,0.00,CLR,,0.00,WeatherDisplay:10.37,2013-01-28 20:34:00,
2013-01-28 15:39:00,27.8,25.8,30.15,SSE,148,0.0,0.0,92,0.00,CLR,,0.00,WeatherDisplay:10.37,2013-01-28 20:39:00,
2013-01-28 15:44:00,27.9,25.9,30.14,SSE,148,0.0,0.0,92,0.00,CLR,,0.00,WeatherDisplay:10.37,2013-01-28 20:44:00,
2013-01-28 15:49:00,27.9,25.9,30.14,SSE,148,0.0,0.0,92,0.00,CLR,,0.00,WeatherDisplay:10.37,2013-01-28 20:49:00,
2013-01-28 15:54:00,28.0,26.0,30.14,SSE,148,0.0,0.0,92,0.00,CLR,,0.00,WeatherDisplay:10.37,2013-01-28 20:54:00,
2013-01-28 15:59:00,28.0,26.2,30.14,SSE,148,0.0,0.0,93,0.00,CLR,,0.00,WeatherDisplay:10.37,2013-01-28 20:59:00,
2013-01-28 16:04:00,28.1,26.3,30.13,SSE,148,0.0,0.0,93,0.00,CLR,,0.00,WeatherDisplay:10.37,2013-01-28 21:04:00,
2013-01-28 16:09:00,28.1,26.3,30.13,SSE,148,1.0,1.0,93,0.00,CLR,,0.00,WeatherDisplay:10.37,2013-01-28 21:09:00,
2013-01-28 16:14:00,28.1,26.3,30.15,SSE,148,0.0,0.0,93,0.00,CLR,,0.00,WeatherDisplay:10.37,2013-01-28 21:14:00,
2013-01-28 16:19:00,28.2,26.4,30.14,SSE,148,0.0,0.0,93,0.00,CLR,,0.00,WeatherDisplay:10.37,2013-01-28 21:19:00,
2013-01-28 16:24:00,28.2,26.4,30.14,SSE,148,0.0,0.0,93,0.00,CLR,,0.00,WeatherDisplay:10.37,2013-01-28 21:24:00,
2013-01-28 16:29:00,28.3,26.5,30.13,SSE,148,0.0,0.0,93,0.00,CLR,,0.00,WeatherDisplay:10.37,2013-01-28 21:29:00,
2013-01-28 16:34:00,28.3,26.8,30.14,SSE,148,0.0,0.0,94,0.00,CLR,,0.00,WeatherDisplay:10.37,2013-01-28 21:34:00,
2013-01-28 16:39:00,28.3,26.8,30.14,SSE,148,0.0,0.0,94,0.00,CLR,,0.00,WeatherDisplay:10.37,2013-01-28 21:39:00,
2013-01-28 16:44:00,28.4,26.9,30.14,SSE,148,1.1,1.1,94,0.00,CLR,,0.00,WeatherDisplay:10.37,2013-01-28 21:44:00,
2013-01-28 16:49:00,28.4,26.9,30.14,SSE,148,0.0,0.0,94,0.00,CLR,,0.00,WeatherDisplay:10.37,2013-01-28 21:49:00,
2013-01-28 16:54:00,28.4,26.9,30.14,SSE,148,0.0,0.0,94,0.00,CLR,,0.00,WeatherDisplay:10.37,2013-01-28 21:54:00,
2013-01-28 16:59:00,28.4,26.9,30.13,SSE,148,0.0,0.0,94,0.00,CLR,,0.00,WeatherDisplay:10.37,2013-01-28 21:59:00,
2013-01-28 17:04:00,28.3,26.8,30.13,SSE,148,0.0,0.0,94,0.00,,,0.00,WeatherDisplay:10.37,2013-01-28 22:04:00,
2013-01-28 17:09:00,28.3,26.8,30.13,SSE,148,0.0,0.0,94,0.00,,,0.00,WeatherDisplay:10.37,2013-01-28 22:09:00,
2013-01-28 17:14:00,28.3,26.8,30.13,SSE,148,0.0,0.0,94,0.00,,,0.00,WeatherDisplay:10.37,2013-01-28 22:14:00,
2013-01-28 17:19:00,28.2,26.7,30.12,SSE,148,2.3,2.3,94,0.00,,,0.00,WeatherDisplay:10.37,2013-01-28 22:19:00,
2013-01-28 17:24:00,28.1,26.6,30.12,SSE,148,1.1,1.1,94,0.00,,,0.00,WeatherDisplay:10.37,2013-01-28 22:24:00,
2013-01-28 17:29:00,28.1,26.6,30.12,SSE,148,0.0,0.0,94,0.00,,,0.00,WeatherDisplay:10.37,2013-01-28 22:29:00,
2013-01-28 17:34:00,28.1,26.6,30.11,SSE,148,0.0,0.0,94,0.00,,,0.00,WeatherDisplay:10.37,2013-01-28 22:34:00,
2013-01-28 17:39:00,28.1,26.9,30.11,SSE,148,1.1,0.0,95,0.00,,,0.00,WeatherDisplay:10.37,2013-01-28 22:39:00,
2013-01-28 17:44:00,28.1,26.9,30.10,ESE,116,2.3,2.3,95,0.00,,,0.00,WeatherDisplay:10.37,2013-01-28 22:44:00,
2013-01-28 17:49:00,28.1,26.9,30.10,ESE,117,2.3,2.3,95,0.00,,,0.00,WeatherDisplay:10.37,2013-01-28 22:49:00,
2013-01-28 17:54:00,28.1,26.9,30.09,ESE,106,2.3,2.3,95,0.00,,,0.00,WeatherDisplay:10.37,2013-01-28 22:54:00,
2013-01-28 17:59:00,28.1,26.9,30.09,ESE,106,0.0,0.0,95,0.00,,,0.00,WeatherDisplay:10.37,2013-01-28 22:59:00,
2013-01-28 18:04:00,28.1,26.9,30.08,ESE,107,2.3,2.3,95,0.00,,,0.00,WeatherDisplay:10.37,2013-01-28 23:04:00,
2013-01-28 18:09:00,28.1,26.9,30.08,ESE,113,0.0,0.0,95,0.00,,,0.00,WeatherDisplay:10.37,2013-01-28 23:09:00,
2013-01-28 18:14:00,28.1,26.9,30.09,ESE,114,0.0,0.0,95,0.00,,,0.00,WeatherDisplay:10.37,2013-01-28 23:14:00,
2013-01-28 18:19:00,28.1,26.9,30.08,ESE,113,0.0,0.0,95,0.00,,,0.00,WeatherDisplay:10.37,2013-01-28 23:19:00,
2013-01-28 18:24:00,28.1,26.9,30.08,ESE,109,0.0,0.0,95,0.00,,,0.00,WeatherDisplay:10.37,2013-01-28 23:24:00,
2013-01-28 18:29:00,28.1,26.9,30.08,ESE,109,0.0,0.0,95,0.00,,,0.00,WeatherDisplay:10.37,2013-01-28 23:29:00,
2013-01-28 18:34:00,28.1,26.9,30.07,ESE,109,1.1,0.0,95,0.00,,,0.00,WeatherDisplay:10.37,2013-01-28 23:34:00,
2013-01-28 18:39:00,28.2,27.0,30.07,ESE,112,3.5,3.5,95,0.00,,,0.00,WeatherDisplay:10.37,2013-01-28 23:39:00,
2013-01-28 18:44:00,28.2,27.0,30.07,ESE,113,2.3,2.3,95,0.00,,,0.00,WeatherDisplay:10.37,2013-01-28 23:44:00,
2013-01-28 18:49:00,28.2,27.0,30.07,ESE,113,2.0,2.0,95,0.00,,,0.00,WeatherDisplay:10.37,2013-01-28 23:49:00,
2013-01-28 18:54:00,28.3,27.1,30.07,ESE,113,2.3,2.3,95,0.00,,,0.00,WeatherDisplay:10.37,2013-01-28 23:54:00,
2013-01-28 18:59:00,28.3,27.1,30.08,ESE,113,0.0,0.0,95,0.00,,,0.00,WeatherDisplay:10.37,2013-01-28 23:59:00,
2013-01-28 19:04:00,28.4,27.2,30.07,ESE,113,0.0,0.0,95,0.00,,,0.00,WeatherDisplay:10.37,2013-01-29 00:04:00,
2013-01-28 19:09:00,28.4,27.2,30.07,ESE,113,3.5,3.5,95,0.00,,,0.00,WeatherDisplay:10.37,2013-01-29 00:09:00,
2013-01-28 19:14:00,28.4,27.4,30.06,ESE,113,0.0,0.0,96,0.00,,,0.00,WeatherDisplay:10.37,2013-01-29 00:14:00,
2013-01-28 19:19:00,28.3,27.3,30.06,ESE,113,2.3,0.0,96,0.00,,,0.00,WeatherDisplay:10.37,2013-01-29 00:19:00,
2013-01-28 19:24:00,28.3,27.3,30.06,ESE,113,3.5,3.5,96,0.00,,,0.00,WeatherDisplay:10.37,2013-01-29 00:24:00,
2013-01-28 19:29:00,28.3,27.3,30.05,ESE,113,3.5,3.5,96,0.00,,,0.00,WeatherDisplay:10.37,2013-01-29 00:29:00,
2013-01-28 19:34:00,28.3,27.3,30.06,SE,140,3.5,3.5,96,0.00,,,0.00,WeatherDisplay:10.37,2013-01-29 00:34:00,
2013-01-28 19:39:00,28.3,27.3,30.05,SE,125,0.0,0.0,96,0.00,,,0.00,WeatherDisplay:10.37,2013-01-29 00:39:00,
2013-01-28 19:44:00,28.4,27.4,30.05,SE,125,0.0,0.0,96,0.00,,,0.00,WeatherDisplay:10.37,2013-01-29 00:44:00,
2013-01-28 19:49:00,28.4,27.4,30.05,SE,125,3.5,3.5,96,0.00,,,0.00,WeatherDisplay:10.37,2013-01-29 00:49:00,
2013-01-28 19:54:00,28.4,27.4,30.05,SE,125,0.0,0.0,96,0.00,,,0.00,WeatherDisplay:10.37,2013-01-29 00:54:00,
2013-01-28 19:59:00,28.4,27.4,30.04,SE,125,2.0,2.0,96,0.00,,,0.00,WeatherDisplay:10.37,2013-01-29 00:59:00,
2013-01-28 20:04:00,28.5,27.5,30.03,SE,125,2.3,0.0,96,0.00,,,0.00,WeatherDisplay:10.37,2013-01-29 01:04:00,
2013-01-28 20:09:00,28.6,27.6,30.04,SE,125,0.0,0.0,96,0.00,,,0.00,WeatherDisplay:10.37,2013-01-29 01:09:00,
2013-01-28 20:14:00,28.7,27.7,30.03,SE,125,1.1,0.0,96,0.00,,,0.00,WeatherDisplay:10.37,2013-01-29 01:14:00,
2013-01-28 20:19:00,28.7,27.7,30.03,SE,125,2.0,2.0,96,0.00,,,0.00,WeatherDisplay:10.37,2013-01-29 01:19:00,
2013-01-28 20:24:00,28.7,27.7,30.03,SE,125,0.0,0.0,96,0.00,,,0.00,WeatherDisplay:10.37,2013-01-29 01:24:00,
2013-01-28 20:29:00,28.7,27.7,30.04,SE,125,0.0,0.0,96,0.00,,,0.00,WeatherDisplay:10.37,2013-01-29 01:29:00,
2013-01-28 20:34:00,28.8,27.8,30.04,SE,125,1.1,0.0,96,0.00,,,0.00,WeatherDisplay:10.37,2013-01-29 01:34:00,
2013-01-28 20:39:00,28.9,27.9,30.03,SE,125,1.0,1.0,96,0.00,,,0.00,WeatherDisplay:10.37,2013-01-29 01:39:00,
2013-01-28 20:44:00,29.1,28.4,30.04,SE,125,0.0,0.0,97,0.00,,,0.00,WeatherDisplay:10.37,2013-01-29 01:44:00,
2013-01-28 20:49:00,29.3,28.6,30.03,SE,125,0.0,0.0,97,0.00,,,0.00,WeatherDisplay:10.37,2013-01-29 01:49:00,
2013-01-28 20:54:00,29.5,28.8,30.03,SE,125,1.1,1.1,97,0.00,,,0.00,WeatherDisplay:10.37,2013-01-29 01:54:00,
2013-01-28 20:59:00,29.6,28.9,30.02,SE,125,3.5,3.5,97,0.00,,,0.00,WeatherDisplay:10.37,2013-01-29 01:59:00,
2013-01-28 21:04:00,29.6,28.9,30.01,ESE,122,2.3,0.0,97,0.00,,,0.00,WeatherDisplay:10.37,2013-01-29 02:04:00,
2013-01-28 21:09:00,29.6,28.9,30.02,ESE,122,0.0,0.0,97,0.00,,,0.00,WeatherDisplay:10.37,2013-01-29 02:09:00,
2013-01-28 21:14:00,29.6,28.9,30.01,ESE,122,0.0,0.0,97,0.00,,,0.00,WeatherDisplay:10.37,2013-01-29 02:14:00,
2013-01-28 21:19:00,29.6,28.9,30.01,ESE,122,0.0,0.0,97,0.00,,,0.00,WeatherDisplay:10.37,2013-01-29 02:19:00,
2013-01-28 21:24:00,29.7,29.0,30.01,ESE,122,0.0,0.0,97,0.00,,,0.00,WeatherDisplay:10.37,2013-01-29 02:24:00,
2013-01-28 21:29:00,29.8,29.1,30.00,ESE,122,2.3,2.3,97,0.00,,,0.00,WeatherDisplay:10.37,2013-01-29 02:29:00,
2013-01-28 21:34:00,29.8,29.1,30.00,ESE,122,0.0,0.8,97,0.00,,,0.00,WeatherDisplay:10.37,2013-01-29 02:34:00,
2013-01-28 21:39:00,30.0,29.3,30.00,ESE,122,0.0,0.0,97,0.00,,,0.00,WeatherDisplay:10.37,2013-01-29 02:39:00,
2013-01-28 21:44:00,30.1,29.4,30.01,ESE,122,0.0,0.0,97,0.00,,,0.00,WeatherDisplay:10.37,2013-01-29 02:44:00,
2013-01-28 21:49:00,30.2,29.5,30.01,ESE,122,0.0,0.0,97,0.00,,,0.00,WeatherDisplay:10.37,2013-01-29 02:49:00,
2013-01-28 21:54:00,30.2,29.5,29.99,ESE,122,0.0,0.0,97,0.00,,,0.00,WeatherDisplay:10.37,2013-01-29 02:54:00,
2013-01-28 21:59:00,30.2,29.5,29.99,ESE,122,2.3,2.3,97,0.00,,,0.00,WeatherDisplay:10.37,2013-01-29 02:59:00,
2013-01-28 22:04:00,30.2,29.5,30.00,ESE,122,0.0,0.0,97,0.00,,,0.00,WeatherDisplay:10.37,2013-01-29 03:04:00,
2013-01-28 22:06:00,30.3,29.6,30.00,ESE,122,1.1,0.0,97,0.00,,,0.00,WeatherDisplay:10.37,2013-01-29 03:06:00,
2013-01-28 22:11:00,30.3,29.6,30.00,ESE,122,0.0,0.0,97,0.00,,,0.00,WeatherDisplay:10.37,2013-01-29 03:11:00,
2013-01-28 22:16:00,30.4,29.7,29.99,ESE,122,0.0,0.0,97,0.00,,,0.00,WeatherDisplay:10.37,2013-01-29 03:16:00,
2013-01-28 22:21:00,30.3,29.6,29.98,ESE,122,0.0,0.0,97,0.00,,,0.00,WeatherDisplay:10.37,2013-01-29 03:21:00,
2013-01-28 22:26:00,30.4,29.7,29.99,ESE,122,0.0,0.0,97,0.00,,,0.00,WeatherDisplay:10.37,2013-01-29 03:26:00,
2013-01-28 22:31:00,30.4,29.7,29.99,ESE,122,0.0,0.0,97,0.00,,,0.00,WeatherDisplay:10.37,2013-01-29 03:31:00,
2013-01-28 22:36:00,30.4,29.7,29.98,ESE,122,0.0,0.0,97,0.00,,,0.00,WeatherDisplay:10.37,2013-01-29 03:36:00,
2013-01-28 22:41:00,30.4,29.7,29.99,ESE,122,0.0,0.0,97,0.00,,,0.00,WeatherDisplay:10.37,2013-01-29 03:41:00,
2013-01-28 22:46:00,30.5,29.8,29.99,ESE,122,0.0,0.0,97,0.00,,,0.00,WeatherDisplay:10.37,2013-01-29 03:46:00,
2013-01-28 22:51:00,30.6,29.9,29.99,ESE,122,0.0,0.0,97,0.00,,,0.00,WeatherDisplay:10.37,2013-01-29 03:51:00,
2013-01-28 22:56:00,30.6,29.9,30.00,ESE,122,0.0,0.0,97,0.00,,,0.00,WeatherDisplay:10.37,2013-01-29 03:56:00,
2013-01-28 23:01:00,30.6,29.9,29.99,ESE,122,0.0,0.0,97,0.00,,,0.00,WeatherDisplay:10.37,2013-01-29 04:01:00,
2013-01-28 23:06:00,30.6,29.9,29.99,ESE,122,0.0,0.0,97,0.00,,,0.00,WeatherDisplay:10.37,2013-01-29 04:06:00,
2013-01-28 23:11:00,30.7,30.0,29.99,ESE,122,0.0,0.0,97,0.00,,,0.00,WeatherDisplay:10.37,2013-01-29 04:11:00,
2013-01-28 23:16:00,30.7,30.0,29.99,ESE,122,0.0,0.0,97,0.00,,,0.00,WeatherDisplay:10.37,2013-01-29 04:16:00,
2013-01-28 23:21:00,30.7,30.0,29.99,ESE,122,0.0,0.0,97,0.00,,,0.00,WeatherDisplay:10.37,2013-01-29 04:21:00,
2013-01-28 23:26:00,30.7,30.0,29.99,ESE,122,0.0,0.0,97,0.00,,,0.00,WeatherDisplay:10.37,2013-01-29 04:26:00,
2013-01-28 23:31:00,30.7,30.0,29.99,ESE,122,0.0,0.0,97,0.00,,,0.00,WeatherDisplay:10.37,2013-01-29 04:31:00,
2013-01-28 23:36:00,30.7,30.0,29.99,ESE,122,0.0,0.0,97,0.00,,,0.00,WeatherDisplay:10.37,2013-01-29 04:36:00,
2013-01-28 23:41:00,30.7,30.0,29.99,ESE,122,0.0,0.0,97,0.00,,,0.00,WeatherDisplay:10.37,2013-01-29 04:41:00,
2013-01-28 23:46:00,30.7,30.0,29.99,ESE,122,0.0,0.0,97,0.00,,,0.00,WeatherDisplay:10.37,2013-01-29 04:46:00,
2013-01-28 23:51:00,30.7,30.0,29.99,ESE,122,0.0,0.0,97,0.00,,,0.00,WeatherDisplay:10.37,2013-01-29 04:51:00,
2013-01-28 23:56:00,30.7,30.0,29.99,ESE,122,0.0,0.0,97,0.00,,,0.00,WeatherDisplay:10.37,2013-01-29 04:56:00,